IRNSS-1J (NVS-01)

Last updated on Wed Jan 29 2025 00:02:44 GMT+0000 (Coordinated Universal Time)

1 56759U 23076A 25028.35096509 -.00000324 00000+0 00000+0 0 9992 2 56759 3.4215 260.8518 0007496 18.8560 103.9712 1.00267191 6054
UTC large
Height (km)
Speed (km/s)
/
Latitude / Longitude
Inclination (degrees)
Orbital Period (minutes)
Azimuth
Elevation
Range (km)
Doppler Factor

Next 0 passes for location: London (51.5072 / 0.1276)

Sorry there are no passes over London.
IRNSS-1J (NVS-01)